FW1986 Weather Reports


time (UTC)temp
C
wind
direction
speed
KPH
gust
KPH
rain 1hr
cm
rain 24hr
cm
rain mn
cm
humidity
%
barometer
mb
20260505040810 11 14 8.0 17.7 0.00 0.00 0.00 88 1012.0
20260505040311 11 7 9.7 17.7 0.00 0.00 0.00 88 1012.1
20260505035811 11 7 9.7 17.7 0.00 0.00 0.00 88 1012.0
20260505035309 11 0 11.3 19.3 0.00 0.00 0.00 88 1012.0
20260505034810 11 0 9.7 19.3 0.00 0.00 0.00 88 1012.1
20260505034310 11 0 11.3 17.7 0.00 0.00 0.00 88 1012.1
20260505033810 11 0 9.7 14.5 0.00 0.00 0.00 88 1012.2
20260505033313 11 0 8.0 14.5 0.00 0.00 0.00 88 1012.1
20260505032811 11 0 8.0 17.7 0.00 0.00 0.00 89 1012.3
20260505032307 11 0 11.3 19.3 0.00 0.00 0.00 89 1012.2
20260505031810 11 0 9.7 19.3 0.00 0.00 0.00 89 1012.1
20260505031307 11 0 9.7 17.7 0.00 0.00 0.00 89 1012.2
20260505030810 11 0 9.7 17.7 0.00 0.00 0.00 89 1012.2
20260505030308 11 0 8.0 19.3 0.00 0.00 0.00 89 1012.2
20260505025809 11 0 11.3 19.3 0.00 0.00 0.00 89 1012.2
20260505025308 11 0 9.7 20.9 0.00 0.00 0.00 89 1012.2
20260505024810 11 0 12.9 20.9 0.00 0.00 0.00 89 1012.3
20260505024307 11 0 11.3 20.9 0.00 0.00 0.00 89 1012.3
20260505023810 11 0 12.9 20.9 0.00 0.00 0.00 89 1012.3
20260505023308 11 0 11.3 17.7 0.00 0.00 0.00 90 1012.3
20260505022307 11 0 9.7 19.3 0.00 0.00 0.00 89 1012.2
20260505021812 11 0 9.7 22.5 0.00 0.00 0.00 90 1012.1
20260505021307 11 1 14.5 22.5 0.00 0.00 0.00 90 1012.1
20260505020306 11 0 12.9 22.5 0.00 0.00 0.00 90 1012.1
20260505015810 11 0 9.7 22.5 0.00 0.00 0.00 90 1012.1
20260505015306 11 0 14.5 22.5 0.00 0.00 0.00 90 1012.1
20260505014815 11 0 11.3 19.3 0.00 0.00 0.00 91 1012.1
20260505014307 11 0 11.3 22.5 0.00 0.00 0.00 91 1012.1
20260505013809 11 0 14.5 24.1 0.00 0.00 0.00 91 1012.1
20260505013305 11 1 17.7 24.1 0.00 0.00 0.00 91 1012.0
20260505012814 11 0 14.5 22.5 0.00 0.00 0.00 91 1012.0
20260505012305 11 3 12.9 20.9 0.00 0.00 0.00 91 1012.1
20260505011305 11 1 11.3 16.1 0.00 0.00 0.00 91 1012.0
20260505010808 11 0 8.0 17.7 0.00 0.00 0.00 91 1012.2
20260505010306 11 0 9.7 17.7 0.00 0.00 0.00 91 1012.2
20260505005806 11 0 8.0 16.1 0.00 0.00 0.00 91 1012.3
20260505005306 11 0 9.7 16.1 0.00 0.00 0.00 91 1012.4
20260505004305 11 0 8.0 16.1 0.00 0.00 0.00 91 1012.5
20260505003809 11 0 9.7 16.1 0.00 0.00 0.00 91 1012.6
20260505003306 11 0 8.0 16.1 0.00 0.00 0.00 91 1012.8
20260505002813 11 0 9.7 16.1 0.00 0.00 0.00 91 1012.8
20260505002304 11 0 6.4 17.7 0.00 0.00 0.00 91 1012.8
20260505001816 11 0 6.4 19.3 0.00 0.00 0.00 91 1012.9
20260505001305 11 0 9.7 19.3 0.00 0.00 0.00 91 1012.8
20260505000811 11 0 9.7 19.3 0.00 0.00 0.00 91 1012.9
20260505000304 11 0 9.7 19.3 0.00 0.00 0.00 91 1012.9
20260504235808 11 0 9.7 17.7 0.00 0.00 0.00 91 1013.0
20260504234811 11 0 9.7 25.7 0.00 0.00 0.00 91 1013.1
20260504234302 11 0 16.1 25.7 0.00 0.00 0.00 91 1013.1
20260504233807 11 0 12.9 17.7 0.00 0.00 0.00 91 1013.1
20260504233307 11 0 11.3 17.7 0.00 0.00 0.00 91 1013.2
20260504232303 11 0 8.0 19.3 0.00 0.00 0.00 91 1013.3
20260504231806 11 3 8.0 20.9 0.00 0.00 0.00 91 1013.2
20260504231303 11 0 12.9 20.9 0.00 0.00 0.00 91 1013.1
20260504230807 11 0 11.3 25.7 0.00 0.00 0.00 91 1013.1
20260504230302 11 3 16.1 25.7 0.00 0.00 0.00 91 1013.2
20260504225805 11 1 16.1 24.1 0.00 0.00 0.00 91 1013.2
20260504225304 11 1 16.1 24.1 0.00 0.00 0.00 91 1013.2
20260504224806 11 0 9.7 25.7 0.00 0.00 0.00 91 1013.2
20260504223806 11 0 19.3 27.4 0.00 0.00 0.00 91 1013.3
20260504223303 11 0 14.5 20.9 0.00 0.00 0.00 91 1013.3
20260504222805 11 0 11.3 22.5 0.00 0.00 0.00 91 1013.3
20260504222302 11 0 14.5 22.5 0.00 0.00 0.00 91 1013.3
20260504221805 11 0 14.5 25.7 0.00 0.00 0.00 91 1013.4
20260504221301 11 0 16.1 25.7 0.00 0.00 0.00 91 1013.4
20260504220805 11 0 11.3 19.3 0.00 0.00 0.00 91 1013.4
20260504220301 11 0 12.9 19.3 0.00 0.00 0.00 91 1013.5
20260504215806 11 0 8.0 14.5 0.00 0.00 0.00 91 1013.5
20260504215300 11 0 8.0 16.1 0.00 0.00 0.00 91 1013.6
20260504214804 11 0 8.0 16.1 0.00 0.00 0.00 91 1013.6
20260504214302 11 0 9.7 17.7 0.00 0.00 0.00 91 1013.7
20260504213804 11 1 9.7 17.7 0.00 0.00 0.00 91 1013.7
20260504213300 11 0 9.7 16.1 0.00 0.00 0.00 91 1013.7
20260504212808 11 0 9.7 16.1 0.00 0.00 0.00 91 1013.7
20260504212300 11 0 9.7 22.5 0.00 0.00 0.00 91 1013.7
20260504211804 11 0 11.3 24.1 0.00 0.00 0.00 91 1013.7
20260504211259 11 0 16.1 24.1 0.00 0.00 0.00 91 1013.6
20260504210804 11 0 12.9 20.9 0.00 0.00 0.00 91 1013.7
20260504210300 11 0 9.7 20.9 0.00 0.00 0.00 91 1013.7
20260504204259 11 0 9.7 14.5 0.00 0.00 0.00 92 1013.8
20260504203802 11 0 8.0 14.5 0.00 0.00 0.00 92 1013.8
20260504203258 11 0 9.7 19.3 0.00 0.00 0.00 92 1013.8
20260504202802 11 0 12.9 19.3 0.00 0.00 0.00 92 1013.8
20260504202259 11 0 11.3 19.3 0.00 0.00 0.00 92 1013.8
20260504201259 11 0 11.3 19.3 0.00 0.00 0.00 92 1013.8
20260504200802 11 0 9.7 19.3 0.00 0.00 0.00 92 1013.7
20260504200258 11 0 12.9 19.3 0.00 0.00 0.00 91 1013.7
20260504195800 11 0 11.3 19.3 0.00 0.00 0.00 91 1013.6
20260504194257 11 0 11.3 16.1 0.00 0.00 0.00 90 1013.5
20260504193800 11 0 11.3 22.5 0.00 0.00 0.00 90 1013.4
20260504193257 11 0 14.5 22.5 0.00 0.00 0.00 90 1013.5
20260504192804 11 0 9.7 17.7 0.00 0.00 0.00 90 1013.4
20260504191800 11 0 9.7 20.9 0.00 0.00 0.00 90 1013.4
20260504190256 12 0 14.5 22.5 0.00 0.00 0.00 90 1013.2
20260504185758 12 0 12.9 22.5 0.00 0.00 0.00 90 1013.2
20260504184758 12 0 14.5 25.7 0.00 0.00 0.00 89 1013.2
20260504184257 12 0 19.3 27.4 0.00 0.00 0.00 89 1013.2
20260504183758 12 0 17.7 27.4 0.00 0.00 0.00 89 1013.0
20260504182801 12 0 11.3 24.1 0.00 0.00 0.00 89 1013.0
20260504181758 12 1 17.7 24.1 0.00 0.00 0.00 89 1012.8
20260504181255 12 0 17.7 25.7 0.00 0.00 0.00 89 1012.9
20260504180255 12 17 14.5 24.1 0.00 0.00 0.00 89 1012.9
20260504175759 12 0 14.5 25.7 0.00 0.00 0.00 89 1012.9
20260504175259 12 0 20.9 25.7 0.00 0.00 0.00 89 1013.0
20260504174757 12 0 16.1 24.1 0.00 0.00 0.00 89 1013.0
20260504174254 13 0 11.3 19.3 0.00 0.00 0.00 89 1013.0
20260504173758 13 0 12.9 22.5 0.00 0.00 0.00 89 1013.0
20260504173256 13 0 14.5 27.4 0.00 0.00 0.00 88 1013.0
20260504172800 13 6 16.1 27.4 0.00 0.00 0.00 88 1013.0
20260504172254 13 0 16.1 25.7 0.00 0.00 0.00 88 1013.0
20260504171758 13 0 14.5 27.4 0.00 0.00 0.00 88 1013.0
20260504171254 13 0 17.7 27.4 0.00 0.00 0.00 87 1013.0
20260504170758 13 0 17.7 25.7 0.00 0.00 0.00 87 1012.9
20260504170306 13 0 17.7 25.7 0.00 0.00 0.00 87 1013.0
20260504160255 16 0 14.5 20.9 0.00 0.03 0.00 83 1012.6
20260504150756 18 0 16.1 25.7 0.00 0.20 0.00 81 1012.5
20260504150252 18 0 16.1 22.5 0.00 0.20 0.00 80 1012.4
20260504130752 18 0 3.2 14.5 0.00 0.33 0.00 76 1013.2
20260504130248 18 0 8.0 11.3 0.00 0.33 0.00 76 1013.2
20260504120252 17 0 1.6 9.7 0.00 0.36 0.00 81 1013.3
20260504110258 18 0 6.4 8.0 0.00 0.36 0.00 81 1013.8
20260504100245 15 0 6.4 11.3 0.00 0.36 0.00 88 1013.8
20260504081743 13 0 6.4 8.0 0.00 0.36 0.00 92 1013.5
20260504081243 13 0 3.2 6.4 0.00 0.36 0.00 93 1013.6
20260504080741 13 0 3.2 6.4 0.00 0.36 0.00 93 1013.5
20260504080241 13 0 4.8 8.0 0.00 0.36 0.00 93 1013.4
20260504060238 11 0 1.6 3.2 0.00 0.43 0.00 96 1012.5
20260504050238 10 0 0.0 1.6 0.00 0.43 0.00 96 1011.9